Probability
0 0 0 0 0 0 0 0 0 3 0 0 3 3 3 13 13 10 6 6 3 3 3 3 0 0 0 0 0 0 0 0 0 0 13 10 6 10 13 10 6 10 6 6
0 0 0 0 0 0 0 0 0 0 0 0 3 3 3 3 10 6 6 6 3 3 3 0 0 0 0 0 0 0 0 0 0 3 3 0 10 10 6 6 6 6 6 6
0 0 0 0 0 0 0 0 0 0 0 0 0 3 3 10 3 3 6 6 6 3 3 0 3 0 0 0 0 0 0 0 0 0 0 0 0 3 6 6 6 10 6 6
0 0 0 0 0 0 0 0 3 3 3 6 6 6 6 0 0 3 6 6 10 3 3 0 0 0 0 0 0 0 0 0 0 0 0 3 6 3 10 10 10 3 6 6
0 0 0 0 0 0 0 3 6 6 6 3 3 0 3 0 3 6 6 6 10 3 3 6 3 3 0 0 6 6 3 3 3 0 0 3 3 6 6 10 10 3 3 0
0 0 0 0 0 0 0 0 3 3 3 3 3 0 3 3 3 3 6 3 10 3 3 3 3 3 0 0 3 3 6 3 3 3 3 6 10 10 10 6 6 3 0 0
0 0 0 0 0 0 0 3 3 3 3 3 3 3 6 3 3 3 3 6 10 3 3 3 3 3 10 3 3 3 0 0 3 6 16 10 13 13 6 6 6 6 6 6
0 0 0 0 0 0 6 3 0 0 0 3 3 3 0 3 3 0 0 3 0 0 3 6 6 3 0 3 6 3 3 3 10 13 3 3 10 13 13 10 6 10 6 6
3 0 6 0 0 0 0 0 0 0 0 0 0 3 0 0 3 0 0 3 3 0 3 3 3 3 3 3 0 3 10 16 13 13 6 6 13 6 0 6 3 0 0 0
3 0 0 0 0 0 0 0 0 0 0 0 0 0 0 0 0 3 0 0 0 0 0 6 3 0 6 0 6 6 13 13 19 13 10 6 10 0 0 3 0 0 0 0
0 0 0 0 0 0 0 0 0 0 0 0 0 0 0 0 3 3 3 0 0 0 0 0 0 0 0 3 3 3 16 16 16 13 3 6 3 6 0 0 0 0 0 0
0 3 0 0 0 0 0 0 0 0 0 0 0 0 0 3 10 6 3 0 0 3 0 0 0 0 3 6 3 6 10 19 13 13 10 0 0 0 0 0 0 0 0 0
3 0 0 0 0 0 0 0 0 0 0 0 0 0 0 0 3 6 6 0 0 0 0 0 0 0 3 3 6 10 16 16 6 3 0 0 3 0 0 0 0 0 0 0
0 0 0 3 0 0 0 0 0 0 0 0 0 0 0 0 0 3 0 3 3 0 0 0 0 3 3 0 6 6 6 0 0 6 10 0 3 0 0 0 0 0 0 0
0 0 0 3 0 0 0 0 0 0 0 0 0 0 0 0 0 0 0 0 0 0 3 3 3 3 3 3 3 3 0 0 6 6 0 0 0 0 0 0 0 0 0 0
0 0 0 3 0 0 0 0 0 0 0 0 0 0 0 0 0 0 0 0 0 0 3 3 3 3 3 3 0 3 3 0 0 0 0 0 0 0 0 0 0 0 0 0
0 0 0 6 3 0 0 0 0 0 0 0 0 0 0 0 0 0 0 0 0 0 3 3 3 3 3 3 3 0 0 0 0 0 0 0 0 0 0 0 0 0 0 0
0 3 3 3 0 0 0 0 0 0 0 0 0 0 0 0 0 0 0 0 0 3 3 3 3 0 0 0 3 0 0 0 0 0 0 0 0 0 0 0 0 0 0 0
0 0 3 3 3 0 0 0 0 0 0 0 0 0 0 0 0 0 0 0 0 3 6 6 0 0 0 0 0 0 0 0 0 0 0 0 0 0 0 0 0 0 0 0
0 0 0 0 0 0 0 0 0 0 0 0 0 0 0 0 0 0 0 3 3 6 10 6 3 3 3 0 0 0 0 0 0 0 0 0 0 0 0 0 0 0 0 0
3 3 0 0 0 0 0 3 0 0 0 0 0 0 0 0 0 0 3 3 13 3 3 0 3 0 0 0 0 0 0 0 0 0 0 0 0 0 0 0 0 0 0 0
3 3 3 0 0 6 3 3 0 0 0 0 0 0 0 0 0 0 6 13 6 0 0 0 0 0 0 0 0 0 0 0 0 0 0 0 0 0 0 0 0 0 0 0
3 3 3 3 3 3 6 6 0 0 0 0 0 0 0 3 3 0 0 0 0 0 0 0 0 0 0 0 0 0 0 0 0 0 0 0 0 0 0 0 0 0 0 0
3 3 3 3 3 3 3 3 3 0 0 0 0 0 0 0 0 0 0 0 0 0 0 0 0 0 0 0 0 0 0 0 0 0 0 0 0 0 0 0 0 0 0 0
3 3 3 3 3 0 3 3 6 0 0 0 0 3 3 3 0 0 0 0 0 0 0 0 0 0 0 0 0 0 0 0 0 0 0 0 0 0 0 0 0 0 0 3
6 6 3 13 13 13 3 3 3 0 0 0 0 0 0 3 0 0 3 0 0 0 0 0 0 0 0 0 0 0 0 0 0 0 0 0 0 0 0 0 0 0 0 0
3 6 6 3 3 3 3 3 0 0 0 0 0 0 0 0 0 0 0 0 0 0 0 0 0 0 0 0 0 0 0 0 0 0 0 0 0 0 0 0 0 0 0 0
Height
5834 5833 5832 5831 5829 5828 5826 5823 5821 5818 5816 5812 5808 5805 5802 5799 5795 5792 5788 5784 5781 5777 5773 5770 5766 5763 5759 5756 5752 5749 5746 5743 5741 5738 5736 5733 5730 5728 5725 5722 5720 5718 5715 5713
5832 5831 5829 5828 5826 5825 5822 5820 5818 5815 5812 5808 5805 5802 5799 5795 5792 5788 5785 5781 5777 5773 5769 5766 5762 5759 5755 5751 5748 5745 5742 5739 5736 5733 5731 5728 5725 5723 5720 5717 5715 5712 5710 5707
5829 5828 5826 5825 5823 5821 5819 5817 5815 5812 5809 5805 5802 5799 5795 5792 5788 5784 5781 5777 5773 5769 5765 5762 5759 5755 5751 5747 5744 5741 5738 5735 5732 5729 5726 5723 5720 5718 5715 5712 5710 5707 5704 5701
5826 5825 5823 5823 5820 5818 5816 5813 5811 5808 5805 5801 5798 5795 5791 5787 5783 5780 5777 5773 5769 5765 5762 5758 5754 5751 5747 5744 5740 5737 5733 5730 5727 5724 5721 5718 5715 5712 5710 5707 5704 5701 5699 5696
5822 5820 5819 5818 5815 5813 5812 5809 5807 5804 5801 5797 5794 5791 5787 5783 5780 5776 5773 5769 5765 5761 5757 5753 5750 5747 5743 5740 5737 5733 5729 5726 5723 5720 5717 5714 5710 5707 5705 5702 5699 5696 5693 5691
5818 5817 5816 5815 5811 5808 5808 5805 5802 5799 5796 5793 5790 5787 5784 5779 5776 5772 5769 5765 5761 5757 5753 5749 5746 5743 5740 5736 5733 5729 5726 5723 5719 5716 5713 5709 5706 5703 5700 5697 5694 5691 5688 5686
5814 5812 5811 5810 5807 5805 5804 5802 5798 5794 5791 5788 5785 5782 5778 5774 5771 5768 5765 5761 5757 5753 5749 5746 5743 5739 5736 5733 5730 5726 5723 5719 5716 5712 5709 5706 5702 5699 5696 5693 5690 5687 5684 5681
5809 5808 5809 5805 5803 5801 5799 5796 5793 5789 5787 5784 5780 5777 5773 5770 5767 5764 5760 5757 5753 5749 5746 5742 5739 5736 5733 5730 5727 5723 5720 5716 5713 5709 5706 5702 5699 5696 5693 5690 5687 5684 5681 5677
5806 5805 5802 5800 5798 5795 5793 5790 5788 5785 5782 5779 5775 5772 5769 5766 5763 5759 5756 5752 5749 5746 5742 5739 5736 5733 5730 5727 5723 5720 5717 5714 5710 5707 5703 5700 5697 5694 5691 5688 5684 5681 5678 5674
5800 5799 5797 5795 5792 5790 5788 5785 5782 5780 5777 5774 5770 5767 5764 5761 5758 5755 5752 5748 5745 5742 5739 5736 5733 5730 5726 5723 5720 5717 5714 5711 5708 5704 5701 5698 5695 5692 5688 5685 5682 5679 5675 5672
5794 5793 5791 5789 5787 5784 5782 5779 5777 5774 5772 5769 5766 5763 5760 5757 5754 5751 5747 5744 5741 5738 5735 5732 5729 5726 5723 5720 5717 5714 5711 5708 5704 5701 5699 5696 5693 5690 5686 5683 5680 5677 5674 5670
5788 5787 5785 5783 5781 5778 5776 5773 5771 5768 5766 5763 5760 5757 5755 5752 5749 5746 5743 5740 5737 5734 5731 5729 5726 5723 5720 5718 5714 5711 5708 5705 5702 5699 5696 5694 5691 5688 5685 5682 5679 5676 5673 5669
5781 5780 5778 5776 5774 5772 5770 5767 5765 5762 5759 5757 5755 5752 5749 5747 5744 5741 5738 5735 5733 5730 5727 5725 5722 5720 5717 5714 5711 5708 5705 5702 5699 5697 5694 5692 5689 5687 5684 5682 5679 5676 5673 5669
5774 5773 5772 5770 5768 5766 5763 5761 5759 5756 5754 5751 5749 5747 5744 5742 5740 5737 5734 5731 5729 5726 5724 5721 5719 5717 5714 5711 5708 5705 5702 5700 5698 5695 5693 5690 5688 5686 5683 5681 5678 5675 5672 5669
5767 5766 5765 5763 5761 5759 5757 5755 5753 5750 5748 5746 5743 5741 5739 5737 5735 5732 5730 5727 5725 5722 5720 5718 5716 5713 5711 5708 5705 5703 5700 5698 5696 5694 5691 5689 5687 5685 5683 5680 5678 5675 5672 5668
5759 5758 5757 5756 5754 5753 5750 5748 5746 5744 5742 5740 5737 5735 5733 5732 5730 5727 5725 5723 5721 5718 5716 5714 5712 5710 5708 5705 5703 5700 5698 5696 5694 5692 5690 5688 5686 5684 5682 5680 5677 5674 5671 5667
5752 5751 5750 5749 5747 5746 5744 5742 5740 5738 5736 5734 5732 5730 5728 5726 5724 5723 5721 5718 5716 5714 5712 5710 5708 5706 5705 5702 5700 5698 5696 5694 5692 5690 5688 5686 5685 5683 5681 5679 5676 5673 5670 5666
5744 5743 5742 5741 5740 5738 5737 5735 5733 5731 5729 5728 5726 5724 5722 5721 5719 5717 5716 5714 5712 5710 5708 5707 5705 5703 5701 5700 5698 5696 5694 5692 5690 5689 5687 5685 5684 5682 5680 5677 5675 5672 5669 5666
5736 5735 5734 5733 5732 5731 5730 5728 5726 5724 5723 5721 5719 5718 5716 5715 5714 5712 5710 5709 5707 5706 5705 5703 5701 5700 5698 5697 5695 5693 5692 5690 5689 5687 5685 5684 5682 5680 5678 5676 5673 5671 5668 5665
5728 5727 5727 5726 5725 5724 5722 5721 5719 5718 5716 5715 5713 5712 5710 5709 5708 5706 5705 5703 5702 5701 5700 5698 5697 5696 5695 5693 5692 5691 5689 5688 5687 5685 5684 5682 5680 5678 5676 5674 5672 5669 5666 5663
5719 5719 5719 5718 5717 5716 5715 5713 5712 5711 5709 5708 5707 5705 5704 5703 5701 5700 5699 5698 5698 5696 5695 5694 5693 5692 5691 5690 5689 5688 5686 5685 5684 5683 5681 5680 5678 5676 5674 5672 5670 5667 5665 5662
5711 5711 5711 5710 5709 5708 5707 5706 5705 5704 5702 5701 5700 5699 5698 5696 5695 5694 5694 5693 5692 5691 5690 5690 5689 5688 5687 5686 5685 5685 5684 5683 5682 5680 5679 5677 5675 5674 5672 5670 5668 5665 5663 5660
5702 5703 5703 5702 5701 5700 5699 5698 5697 5696 5695 5694 5693 5692 5691 5690 5689 5689 5688 5687 5687 5686 5685 5685 5685 5684 5684 5683 5682 5681 5681 5680 5679 5677 5676 5674 5673 5671 5669 5667 5665 5663 5660 5658
5694 5694 5694 5694 5693 5692 5691 5690 5689 5689 5688 5687 5686 5685 5684 5684 5684 5683 5682 5682 5681 5681 5681 5681 5680 5680 5680 5679 5679 5678 5677 5676 5675 5674 5673 5672 5670 5668 5666 5664 5662 5660 5658 5655
5685 5685 5685 5685 5684 5684 5683 5682 5682 5681 5680 5680 5679 5678 5678 5678 5677 5677 5677 5676 5676 5676 5676 5676 5676 5676 5676 5675 5675 5675 5674 5673 5672 5671 5670 5669 5667 5665 5663 5661 5659 5657 5655 5652
5675 5676 5676 5676 5675 5675 5675 5674 5674 5674 5673 5673 5672 5672 5671 5671 5671 5671 5671 5670 5671 5671 5671 5671 5671 5671 5671 5671 5671 5671 5670 5670 5669 5668 5667 5665 5664 5662 5660 5658 5656 5654 5652 5650
5666 5667 5667 5667 5667 5667 5666 5666 5666 5666 5666 5666 5665 5665 5665 5665 5665 5665 5665 5665 5665 5666 5666 5666 5666 5666 5667 5667 5667 5667 5667 5666 5666 5665 5664 5662 5661 5659 5657 5655 5653 5651 5649 5647
Wind_Speed
11 11 12 13 14 15 16 16 18 18 19 19 21 22 22 22 23 23 23 22 23 24 24 24 24 24 24 25 24 23 22 21 21 22 22 22 22 22 22 22 22 22 23 23
11 12 13 14 15 15 16 16 17 18 19 20 21 22 23 23 23 23 23 23 24 25 25 24 23 24 24 23 23 23 22 22 22 22 21 21 21 21 22 22 22 23 23 24
12 12 14 15 16 16 16 17 18 19 20 21 22 22 22 23 24 24 24 24 24 24 23 23 23 23 23 23 22 22 22 22 22 21 21 22 22 22 22 22 22 23 23 23
14 15 16 16 16 17 18 18 19 20 21 21 23 23 23 23 23 23 24 24 24 23 23 23 23 23 22 21 21 21 21 21 21 21 22 22 22 22 22 22 22 22 22 21
15 16 16 16 18 19 19 19 20 21 22 23 24 23 23 23 23 23 24 24 25 24 24 23 23 23 22 21 21 21 21 21 21 22 22 22 22 22 22 21 21 21 21 20
17 17 17 17 19 21 21 22 22 23 23 24 24 24 23 24 23 23 23 24 24 24 23 22 22 22 21 21 21 21 21 21 21 21 22 21 21 20 20 20 20 21 20 20
18 18 19 19 21 22 22 23 23 23 23 24 25 25 25 24 23 23 23 24 24 23 22 22 21 21 21 21 21 21 20 20 20 20 20 20 20 19 19 19 19 20 19 19
20 19 20 20 21 22 22 23 23 24 24 25 25 25 24 24 23 23 23 24 24 23 22 21 21 20 20 21 20 19 19 19 19 19 18 18 19 19 18 18 18 19 19 19
21 20 21 22 23 23 23 23 24 25 24 25 25 25 24 23 23 23 23 22 22 22 21 21 20 20 20 20 19 18 19 19 18 19 18 18 18 18 17 17 18 19 19 18
21 21 22 23 23 23 24 25 25 25 25 25 25 24 24 23 23 23 22 22 22 21 21 21 20 19 19 19 19 18 18 18 18 18 17 17 17 16 17 17 17 18 18 18
24 24 23 23 24 25 25 26 26 26 25 24 24 24 24 24 23 23 23 22 22 21 21 20 19 18 18 18 18 18 18 17 17 18 17 16 16 16 16 16 16 17 17 18
24 23 24 25 25 25 26 26 26 26 26 24 24 24 24 25 24 23 23 23 22 21 21 20 18 18 18 18 18 18 17 17 17 17 15 15 15 15 15 15 15 16 17 18
24 24 24 24 25 25 25 26 26 26 25 25 24 24 25 24 24 23 23 22 21 21 20 18 18 17 17 17 17 17 17 16 15 15 14 14 14 14 14 14 14 15 16 17
24 24 24 24 25 25 25 26 26 26 26 25 25 24 24 23 23 22 22 22 21 20 20 18 18 17 17 17 16 16 15 14 14 13 13 13 12 12 12 13 13 15 17 18
25 24 25 25 25 25 25 26 26 26 26 25 25 24 24 24 23 22 22 21 20 20 19 18 17 17 17 16 15 14 14 13 13 12 12 12 12 11 11 12 13 15 17 18
25 25 25 25 25 25 25 26 25 25 25 24 24 24 24 23 22 21 21 20 19 19 18 17 16 16 15 15 14 14 13 12 12 11 11 11 11 10 11 12 14 15 17 17
26 26 25 25 25 25 25 25 25 24 24 24 23 23 23 22 21 20 20 19 19 18 17 17 16 14 14 14 14 13 13 12 11 11 11 10 11 11 12 13 14 15 16 17
27 27 26 26 25 25 24 24 24 24 24 24 23 23 23 22 20 20 20 19 18 18 17 16 15 13 13 13 13 12 12 12 11 11 10 10 10 11 12 12 14 15 15 16
26 26 27 26 26 25 25 25 25 25 24 24 24 23 23 21 20 19 19 18 18 17 17 16 14 13 13 13 12 12 11 11 11 10 10 10 10 11 12 13 14 14 14 14
26 26 26 26 26 26 25 25 25 24 24 23 23 23 22 21 19 19 19 18 17 16 16 14 13 12 12 12 12 12 11 10 10 10 10 11 11 11 12 13 13 13 13 14
25 26 26 26 26 25 25 25 24 24 23 22 22 22 21 21 19 18 18 17 16 15 15 14 13 12 12 12 12 12 11 11 10 11 11 11 11 11 12 13 13 14 14 14
26 26 26 26 26 26 25 25 24 23 22 22 22 22 21 20 19 18 17 17 15 15 14 13 13 12 12 12 11 11 10 11 11 11 12 12 12 12 13 13 13 13 14 15
28 27 27 27 27 26 25 25 24 23 23 23 23 22 21 20 18 17 17 16 15 14 14 13 12 12 12 11 10 10 10 11 11 11 12 11 12 13 13 13 14 14 14 14
28 28 27 28 27 26 26 25 24 24 23 22 22 21 20 18 18 17 16 16 15 14 13 12 12 12 12 11 11 10 10 10 10 11 11 11 12 12 13 13 13 14 14 14
29 29 29 28 27 27 26 25 24 23 23 22 22 21 20 20 19 17 17 16 15 14 13 12 12 12 12 12 11 11 10 10 10 11 11 12 12 13 13 13 14 14 14 15
29 29 29 29 29 28 26 26 25 24 23 23 22 21 20 19 18 18 16 15 15 14 13 13 13 13 13 12 12 11 10 10 11 11 12 12 13 13 14 14 14 14 14 15
29 29 29 29 29 28 27 26 25 24 23 22 21 20 19 18 18 17 16 15 15 14 14 14 13 12 12 11 11 11 11 11 11 11 12 13 13 14 14 15 15 15 15 15
Wind_Direction
303 302 297 296 302 306 307 306 308 310 309 307 309 312 314 316 317 317 316 316 317 317 317 318 319 317 316 317 317 315 316 316 315 314 313 312 310 309 309 308 308 308 308 308
306 304 302 301 303 307 312 310 309 311 310 310 311 312 314 316 318 316 316 316 318 318 317 318 319 319 319 320 319 318 318 317 316 315 314 314 313 311 310 309 309 308 309 308
302 303 302 306 309 311 311 312 311 311 312 313 314 315 316 316 316 316 316 316 317 317 317 318 319 320 321 320 321 321 320 318 318 317 317 316 314 312 311 310 309 309 309 308
297 299 298 307 307 308 308 308 310 311 312 313 315 316 315 315 315 316 316 316 317 318 317 317 318 320 322 322 321 321 321 320 320 320 318 316 315 314 313 312 312 312 311 309
294 298 300 301 304 305 307 308 310 312 313 314 314 315 314 313 313 315 316 317 319 318 317 316 317 320 322 323 322 322 323 324 323 323 322 319 318 317 316 315 316 316 316 316
295 296 296 300 302 303 305 306 309 310 312 313 314 315 315 313 313 313 315 316 317 317 317 316 317 320 322 323 325 325 326 327 326 325 325 324 323 320 319 319 320 321 321 319
293 293 295 299 300 302 303 306 309 311 312 313 315 315 315 313 313 314 315 316 316 315 316 316 317 319 321 323 325 326 326 326 327 326 326 326 326 325 326 326 325 327 327 324
295 296 297 298 299 301 303 305 307 309 310 313 314 315 314 313 313 315 316 316 316 316 316 316 317 317 320 322 324 325 327 327 328 328 328 329 330 331 332 332 332 334 333 330
290 292 295 297 298 300 303 305 306 308 311 313 314 315 314 312 315 315 317 317 318 319 318 317 316 316 318 321 322 324 327 328 327 328 329 330 333 335 336 336 336 337 337 335
286 288 292 295 297 298 299 301 304 307 309 311 314 315 315 315 315 317 318 316 317 317 318 318 317 316 318 320 323 323 325 326 327 328 329 331 335 337 339 340 340 341 343 344
285 288 290 291 294 296 298 300 302 304 306 308 310 312 314 315 316 317 318 316 315 315 316 317 317 318 318 320 323 325 327 327 329 331 331 332 336 340 343 344 345 347 349 350
285 288 290 292 294 296 298 300 301 302 304 306 308 311 312 314 316 316 316 316 315 314 314 314 316 318 317 319 320 322 326 328 328 331 331 333 337 342 346 348 350 352 354 354
284 285 288 291 294 297 298 298 299 301 303 305 307 309 311 313 315 317 316 315 315 315 316 315 314 315 317 319 320 322 324 326 328 330 331 335 340 342 346 350 353 356 357 356
283 285 287 290 293 296 297 297 297 299 301 303 305 306 307 310 313 315 315 315 314 314 315 314 314 314 316 318 320 322 323 324 326 329 333 337 340 344 348 351 353 355 356 356
282 283 286 288 291 294 296 297 296 297 299 301 302 303 304 307 309 311 311 311 311 311 311 310 311 314 315 316 319 321 322 323 323 327 331 333 336 342 348 350 349 350 351 352
279 282 284 287 290 292 295 296 296 297 299 300 300 301 302 304 307 308 309 310 310 310 309 309 310 312 315 316 318 320 319 320 322 325 330 332 333 337 342 345 345 347 348 350
279 281 283 286 289 291 293 296 297 298 299 299 299 299 300 302 304 305 306 307 308 307 308 308 307 308 311 315 317 318 319 320 322 325 326 327 330 334 338 340 342 345 347 347
278 281 283 285 288 290 292 294 295 296 297 297 298 299 299 300 301 302 302 303 303 303 306 306 304 304 306 310 313 315 316 318 319 321 323 324 326 328 330 334 339 341 344 345
277 279 281 283 286 287 289 290 292 293 295 296 297 297 297 298 298 298 298 298 297 299 303 303 302 301 301 305 307 309 313 315 316 316 320 321 324 327 329 331 335 337 340 343
276 278 279 281 284 286 288 288 291 293 294 294 295 294 294 294 295 295 295 294 294 295 298 298 296 299 298 299 301 304 306 309 311 310 312 317 319 320 322 326 332 336 336 339
274 275 277 280 282 284 285 286 288 290 291 291 292 292 291 291 292 291 290 288 289 290 291 290 288 290 292 295 298 301 303 304 305 307 308 310 313 315 319 322 325 330 331 334
271 273 275 278 281 283 284 284 285 286 286 287 289 288 288 287 288 287 287 287 286 285 285 283 284 286 289 292 295 298 299 301 303 305 309 310 311 313 316 318 320 323 326 331
271 272 273 276 280 282 282 282 282 282 283 284 286 286 285 285 285 285 286 286 284 283 282 280 281 284 286 288 290 293 295 298 300 303 307 311 313 313 313 315 317 320 324 328
269 270 272 276 280 281 281 280 279 280 281 283 283 282 281 281 283 285 286 284 281 280 277 276 279 282 280 281 286 291 294 295 299 304 307 310 312 313 312 314 317 318 320 325
268 269 271 274 276 277 276 276 277 278 278 279 278 277 275 277 280 283 286 284 280 275 271 273 276 276 275 277 282 288 292 295 297 300 303 307 310 312 313 316 317 318 320 322
268 270 271 272 274 274 274 275 276 277 278 278 276 275 273 272 274 278 281 282 278 274 270 268 269 269 270 273 280 285 288 292 296 299 302 304 308 312 313 313 314 317 318 321
268 270 271 272 272 273 273 273 273 275 275 274 274 273 271 270 272 274 275 275 272 269 267 265 264 264 264 268 276 282 285 288 294 298 301 303 307 311 313 312 312 315 316 317